Regional Weather Roundup
Issued by NWS Wakefield, VA

Home | Current Version | Previous Version | Text Only | Print | Product List | Glossary Off
Versions: 1 2 3 4 5 6 7 8 9 10 11 12 13 14 15 16 17 18 19 20 21 22 23 24 25 26 27 28 29 30 31 32 33 34 35 36 37 38 39 40 41 42 43 44 45 46 47 48 49 50

000
ASUS41 KAKQ 020410
RWRAKQ

REGIONAL WEATHER ROUNDUP
NATIONAL WEATHER SERVICE WAKEFIELD VA
1200 AM EDT SAT AUG 02 2014

Note: "fair" indicates few or no clouds below 12,000 feet with no
significant weather and/or obstructions to visibility. * = Denotes
station may not report precipitation (e.g., rain,snow,etc.),
thunder or fog.

VAZ042-051-052>054-056-020500-
NORTHERN VIRGINIA

CITY           SKY/WX    TMP DP  RH WIND       PRES   REMARKS
WASH NATIONAL  LGT RAIN  70  61  73 SE3       30.19R
DULLES         LGT RAIN  66  59  78 SE6       30.18S
FORT BELVOIR   LGT RAIN  66  63  88 CALM      30.18S
QUANTICO       LGT RAIN  68  62  81 NE7       30.18S
FREDERICKSBRG* RAIN      66  66 100 CALM      30.15S
STAFFORD*      LGT RAIN  65  65 100 NE3       30.20S
WARRENTON      LGT RAIN  66  66 100 CALM      30.18R
CULPEPER*      LGT RAIN N/A N/A N/A CALM      30.18S
MANASSAS*      CLOUDY    66  63  88 CALM      30.18S
LEESBURG*      DRIZZLE   70  63  78 S10       30.19R
WINCHESTER     CLOUDY    68  63  83 SE5       30.17S
$$

VAZ048-049-060>072-079>083-020500-
CENTRAL AND SOUTH CENTRAL VIRGINIA...AND NORTH CENTRAL NORTH CAROLINA

CITY           SKY/WX    TMP DP  RH WIND       PRES   REMARKS
RICHMOND       LGT RAIN  65  62  90 NE6       30.14F FOG
CHESTERFIELD*  CLOUDY    63  54  72 E5        30.15F
HANOVER        RAIN      64  63  96 E3        30.16S FOG
TAPPAHANNOCK*  HVY RAIN  66  63  90 E5        30.15S
CHARLOTTSVILLE CLOUDY    65  61  87 CALM      30.18R
ORANGE*        LGT RAIN  63  61  94 CALM      30.19R
LOUISA*        LGT RAIN  64  61  88 CALM      30.16S
FARMVILLE*     CLOUDY    64  63  94 CALM      30.13F FOG
SOUTH HILL*    DRIZZLE   64  64 100 N6        30.17S
ROANOKE RAPIDS CLOUDY    64  63  94 NE8       30.09S
RALEIGH        DRIZZLE   65  62  90 NE5       30.12R
$$

VAZ088>098-020500-
SOUTHEAST VIRGINIA

CITY           SKY/WX    TMP DP  RH WIND       PRES   REMARKS
NORFOLK        LGT RAIN  72  69  90 CALM      30.07F FOG
VIRGINIA BEACH CLOUDY    74  72  93 S6        30.07F
NORFOLK NAVAL  RAIN      73  70  90 NE5       30.09F
WEST POINT*    CLOUDY    67  64  91 N5        30.13F
NEWPORT NEWS   RAIN      71  66  84 NE9       30.10S
LANGLEY AFB    LGT RAIN  69  69 100 NE10      30.08F FOG
FORT EUSTIS    RAIN      66 N/A N/A VRB6      30.08F
WILLIAMSBURG*  CLOUDY    66  66 100 NE3       30.11F
FRANKLIN*      CLOUDY    66 N/A N/A S9        30.10R
WAKEFIELD      LGT RAIN  65  63  93 VRB3      30.11S FOG
$$

VAZ020-022-025-037-045-020500-
WESTERN AND SOUTHWEST VIRGINIA

CITY           SKY/WX    TMP DP  RH WIND       PRES   REMARKS
STAUNTON*      CLOUDY    65  60  83 SE6       30.20S
HOT SPRINGS VA FOG       56  54  94 E7        30.26R VSB 1/2
LYNCHBURG      CLOUDY    62  61  96 NE3       30.18S
DANVILLE       CLOUDY    64  60  87 NE6       30.15S
MARTINSVILLE   DRIZZLE   64  63  97 CALM      30.19R
ROANOKE        CLOUDY    64  62  93 E10       30.19S FOG
BLACKSBURG     CLOUDY    63  63 100 N3        30.22R
DUBLIN*        CLOUDY    64  61  88 CALM      30.21R
MARION*        CLOUDY    62  58  86 CALM      30.23S
HILLSVILLE*    CLOUDY    60  59  97 CALM      30.21S FOG
RICHLANDS*     PTCLDY    65  57  77 SE12      30.18S
WISE*          CLEAR     63  54  72 CALM      30.18S
ABINGDON*      CLEAR     64  58  81 E7        30.16F
$$

MDZ021>025-VAZ099-100-020500-
SOUTHERN MARYLAND AND THE DELMARVA PENINSULA

CITY           SKY/WX    TMP DP  RH WIND       PRES   REMARKS
PATUXENT RIVER RAIN      68  64  87 E8        30.14F FOG
BAY BRIDGE APT RAIN      68  64  88 CALM      30.18S
LEONARDTOWN    CLOUDY    64  61  88 CALM      30.17F
DOVER          LGT RAIN  69  67  93 E2        30.15F
GEORGETOWN     LGT RAIN  71  69  93 NE12      30.15F
EASTON         LGT RAIN  69  69 100 CALM      30.20F
CAMBRIDGE      CLOUDY    70  66  88 N3        30.15S
SALISBURY      HVY RAIN  66  63  88 SE7       30.16R FOG
OCEAN CITY     RAIN      68  63  84 E7        30.15R
WALLOPS ISLAND LGT RAIN  68  64  87 NE7       30.14S
ACCOMACK*      RAIN      64  63  94 NE7       30.12F
$$

NCZ012>017-030>032-020500-
EASTERN NORTH CAROLINA

CITY           SKY/WX    TMP DP  RH WIND       PRES   REMARKS
ELIZABETH CITY CLOUDY    75  72  90 SE8       30.07F
AHOSKIE*       CLOUDY    66  65  95 NW3       30.08F
EDENTON*       CLOUDY    74  73  95 S9G17     30.07S
CURRITUCK*     CLOUDY    74  71  90 CALM      30.07F
KILL DEVIL HLS MOCLDY    75  73  93 SE7       30.07S
MANTEO         NOT AVBL
CAPE HATTERAS  MOCLDY    76  74  93 SE13      30.09S
GOLDSBORO      CLOUDY    69  69  99 N5        30.06S
WASHINGTON     MOCLDY    73  72  95 S3        30.07F
GREENVILLE     NOT AVBL
NEW BERN       MOCLDY    76  73  91 CALM      30.08S
WILMINGTON     CLOUDY    75  73  93 CALM      30.06S
$$

VAZ048-020500-
ELSEWHERE

CITY           SKY/WX    TMP DP  RH WIND       PRES   REMARKS
HARRISBURG PA  CLOUDY    71  66  84 S3        30.16F
BALTIMORE      LGT RAIN  68  62  81 S5        30.18R
ANNAPOLIS      LGT RAIN  71  63  75 E8        30.17F
ANDREWS AFB    LGT RAIN  66  62  89 NE2       30.18S
WILMINGTON DE  CLOUDY    72  68  87 SE5       30.18S
PHILADELPHIA   CLOUDY    72  68  87 SE3       30.19S
WILDWOOD NJ*   CLOUDY    70  66  88 N6        30.17S
ATLANTIC CITY  LGT RAIN  69  69 100 CALM      30.18S FOG
HENDERSON NC   CLOUDY    64  62  94 NE5       30.12S FOG
GREENSBORO     CLOUDY    63  63 100 NE8       30.14R FOG
ROCKY MOUNT    CLOUDY    67  65  93 N7        30.09S
FAYETTEVILLE   CLOUDY    70  67  90 N8        30.08R
CHARLOTTE      CLOUDY    67  64  90 NE9       30.11F
$$

VAZ100-020500-
MARINE

STATION/POSITION TIME  TEMP    WIND        PRES    WAVE   SWELL
                       AIR SEA DIR/SP/G            HT/PER HT/PER
                 (UTC) (F)     (DEG/KT/KT) (MB)    (FT/S) (FT/S)
44066 TX TWR #4  0400   74 74   80/  8/ 10 1021.7F   3/ 7   3/ 7
CAPE MAY NJ      0300                      1020.9F
LEWES DE         0300   72                   N/A
15NM E FENWICK I 0400   74 75              1020.4R   3/ 4
OCEAN-CITY-INLET 0300   71                   N/A
WACHAPREAGUE VA  0300                      1020.2R
THOMAS POINT MD  0300   70 78  140/  9/  9 1022.4S
GOOSES REEF MD   0400   72      80/ 10/ 12 1021.5F
COVE POINT MD    0300                      1021.2S
BISHOPS HEAD MD  0300                      1020.7R
PINEY POINT MD   0300          110/  8/  8   N/A
POTOMAC MD       0400   69     120/ 19/ 23 1019.8F
CAMBRIDGE MD     0300                      1020.8F
LEWISETTA VA     0300   68                   N/A
RAPPAHANNOCK LGT 0300                      1020.3F
STINGRAY PT      0400   70      60/ 17/ 21 1020.0F
YORK RVR RNG VA  0300   69                   N/A
YORKTOWN VA      0300                      1019.2F
JAMESTOWN VA     0400   64      50/  6/ 10   N/A
DOMINION TERM VA 0300                      1018.8F
KIPTOPEKE VA     0300           80/ 10/ 14   N/A
CHES BAY BRIDGE  0300   74                   N/A
CAPE HENRY VA    0300                      1017.3F
WILLOUBY STN VA  0300                      1017.8F
S CRANEY ISL VA  0300                      1018.5F
CAPE HENRY BUOY  0300      77                N/A     5/ 5
1ST LANDING BUOY 0400   74     160/  6/  6 1018.0F
CAPE CHARLES BUO 0300      74                N/A     4/ 5
OFFSHORE WE BUOY 0300      77                N/A     5/ 6
64NM E OF VA BCH 0400   77 78  140/ 16/ 19 1018.4F   4/ 5   2/ 8
DUCK PIER NC     0300                      1017.7F
44056 DUCK FRF   0300                        N/A     4/ 5
OREGON INLET NC  0300                      1018.6F
HATTERAS NC      0300   76                   N/A
DIAMOND SHLS NC  0400          VRB 12/ 14  1018.6F   4/ 6   3/ 6
CAPE LOOKOUT NC  0300   78     210/  4/  5 1018.0F
$$



USA.gov is the U.S. government's official web portal to all federal, state and local government web resources and services.